Location: Newark
(48.1333°N, 17.1000°E)
Time: 01:11:20
(UTC+00:00)

N. Korean satellite - Pass Details

Date: 31 January 2020
Orbit: 456 x 505 km, 97.2° (Epoch: 27 February)

Event Time Altitude Azimuth Distance (km) Brightness Sun altitude
Rises 04:41:45 0° 13° (NNE) 2,556 10.3 -16.8°
Reaches altitude 10° 04:43:49 10° 15° (NNE) 1,679 9.4 -16.4°
Maximum altitude 04:47:26 78° 102° (ESE) 509 6.7 -15.8°
Drops below altitude 10° 04:51:04 10° 189° (S) 1,690 9.3 -15.2°
Sets 04:53:09 0° 191° (S) 2,574 10.2 -14.9°
